Regional Weather Roundup
Issued by NWS

Home | Current Version | Previous Version | Graphics & Text | Print | Product List | Glossary On
Versions: 1 2 3 4 5 6 7 8 9 10 11 12 13 14 15 16 17 18 19 20 21 22 23 24 25 26 27 28 29 30 31 32 33 34 35 36 37 38 39 40 41 42 43 44 45 46 47 48 49 50
005
ASUS43 KLMK 290702
RWRKY
KENTUCKY REGIONAL WEATHER ROUNDUP
NATIONAL WEATHER SERVICE LOUISVILLE KY
300 AM EDT MON AUG 29 2016

NOTE "FAIR" INDICATES FEW OR NO CLOUDS BELOW 12,000 FEET
WITH NO SIGNIFICANT WEATHER AND/OR OBSTRUCTIONS TO VISIBILITY.

KYZ001>023-026-027-061>063-070>075-290800-
WESTERN AND SOUTH CENTRAL KENTUCKY

CITY           SKY/WX    TMP DP  RH WIND       PRES   REMARKS
PADUCAH        CLEAR     73  71  93 N3        30.09F
HENDERSON      CLEAR     73  68  83 E6        30.12S
OWENSBORO      CLEAR     74  71  90 SE6       30.14F
HOPKINSVILLE   CLEAR     74  70  87 NE6       30.12F
BOWLING GREEN  CLEAR     73  69  87 CALM      30.14F
GLASGOW        CLEAR     70  70 100 NE6       30.15F
$$

KYZ024-025-028>034-038-045-046-053-290800-
NORTH CENTRAL KENTUCKY

CITY           SKY/WX    TMP DP  RH WIND       PRES   REMARKS
LOUISVILLE/SDF PTCLDY    74  69  85 CALM      30.14F
LOUISVILLE/LOU PTCLDY    73  69  87 NE3       30.15F
FORT KNOX      CLEAR     69  67  94 NE5       30.13F
$$

KYZ035>037-039>044-047>052-055>060-089>105-290800-
NORTHEAST KENTUCKY

CITY           SKY/WX    TMP DP  RH WIND       PRES   REMARKS
LEXINGTON      CLOUDY    72  68  87 E5        30.17F
COVINGTON      PTCLDY    71  69  93 CALM      30.19R
FRANKFORT      CLOUDY    71  68  90 CALM      30.16F
$$

KYZ054-064>069-076>088-106>120-290800-
SOUTHEAST KENTUCKY

CITY           SKY/WX    TMP DP  RH WIND       PRES   REMARKS
JACKSON        PTCLDY    70  67  90 CALM      30.19F
LONDON         PTCLDY    70  66  87 CALM      30.18F
SOMERSET       CLOUDY    68  68 100 CALM      30.18F
MIDDLESBORO    CLOUDY    68  68 100 CALM      30.19F
MONTICELLO     CLOUDY   N/A N/A N/A NE13      30.18F
$$





USA.gov is the U.S. government's official web portal to all federal, state and local government web resources and services.